Location: Silverdale
(47.6506°N, 122.6941°W)
Time: 08:45:33
(UTC+00:00)

Tiros 1 despin weight - Pass Details

Date: 03 October 2022
Orbit: 590 x 637 km, 48.2° (Epoch: 02 December)

Event Time Altitude Azimuth Distance (km) Brightness Sun altitude
Rises 04:04:09 0° 281° (W) 2,883 ? -23.4°
Reaches altitude 10° 04:06:27 10° 281° (W) 1,985 ? -23.8°
Enters shadow 04:10:55 81° 221° (SW) 638 ? -24.5°
